Kake, AK

11:40 PM AKDT on September 23, 2017 (GMT -0800)
Kake

Weather History for PAFE - October, 2012

Change the Weather History Date:

Monday, October 22, 2012

  Actual Average Record
Temperature  
Mean Temperature 36 °F -  
Max Temperature 42 °F 44 °F 53 °F (2002)
Min Temperature 30 °F 37 °F 30 °F (1996)
Degree Days  
Heating Degree Days 29    
Moisture  
Dew Point 19 °F    
Average Humidity 46    
Maximum Humidity 64    
Minimum Humidity 34    
Precipitation  
Precipitation 0.00 in - - ()
Sea Level Pressure  
Sea Level Pressure 30.04 in    
Wind  
Wind Speed 9 mph (NNE)    
Max Wind Speed 14 mph    
Max Gust Speed 24 mph    
Visibility 10 miles    
Events      
Averages and records for this station are not official NWS values.
T = Trace of Precipitation, MM = Missing Value Source: NWS Daily Summary

Daily Weather History Graph

Daily Weather History Graph

Search for Another Location

Airport or City:

Trip Planner

Search our weather history database for the weather conditions in past years. The results will help you decide how hot, cold, wet, or windy it might be!

Date:

Astronomy

Oct. 22, 2012 Rise Set
Actual Time 7:45 AM AKDT 5:33 PM AKDT
Civil Twilight 7:05 AM AKDT 6:13 PM AKDT
Nautical Twilight 6:21 AM AKDT 6:57 PM AKDT
Astronomical Twilight 5:37 AM AKDT 7:41 PM AKDT
Moon 2:57 PM AKDT (10/22) No Moon Set
Length of Visible Light 11h 07m
Length of Day
9h 48m
First Quarter, 58% of the Moon is Illuminated
Oct 22
First Quarter
Oct 29
Full
Nov 6
Last Quarter
Nov 13
New
Nov 20
First Quarter

Hourly Weather History & Observations

Time (AKDT) Temp. Windchill Dew Point Humidity Pressure Visibility Wind Dir Wind Speed Gust Speed Precip Events Conditions
12:16 AM 37.4 °F 30.3 °F 19.4 °F 48% 30.09 in 10.0 mi North 10.4 mph 21.9 mph N/A   Clear
12:36 AM 37.4 °F 31.4 °F 19.4 °F 48% 30.09 in 10.0 mi NNE 8.1 mph 17.3 mph N/A   Clear
12:56 AM 37.4 °F 29.8 °F 17.6 °F 45% 30.09 in 10.0 mi NNE 11.5 mph 20.7 mph N/A   Clear
1:16 AM 37.4 °F 30.8 °F 17.6 °F 45% 30.08 in 10.0 mi NNE 9.2 mph 23.0 mph N/A   Clear
1:36 AM 37.4 °F 30.3 °F 17.6 °F 45% 30.09 in 10.0 mi NNE 10.4 mph 19.6 mph N/A   Clear
1:56 AM 37.4 °F 29.8 °F 17.6 °F 45% 30.08 in 10.0 mi NNE 11.5 mph 17.3 mph N/A   Clear
2:16 AM 37.4 °F 30.3 °F 19.4 °F 48% 30.08 in 10.0 mi NNE 10.4 mph 17.3 mph N/A   Clear
2:36 AM 37.4 °F 30.8 °F 17.6 °F 45% 30.08 in 10.0 mi NNE 9.2 mph 16.1 mph N/A   Clear
2:56 AM 37.4 °F 29.8 °F 17.6 °F 45% 30.08 in 10.0 mi NE 11.5 mph 20.7 mph N/A   Clear
3:16 AM 37.4 °F 30.8 °F 17.6 °F 45% 30.07 in 10.0 mi NE 9.2 mph 17.3 mph N/A   Clear
3:36 AM 37.4 °F 28.9 °F 19.4 °F 48% 30.07 in 10.0 mi NNE 13.8 mph 24.2 mph N/A   Clear
3:56 AM 37.4 °F 30.3 °F 19.4 °F 48% 30.07 in 10.0 mi NNE 10.4 mph 18.4 mph N/A   Clear
4:16 AM 37.4 °F 32.8 °F 19.4 °F 48% 30.07 in 10.0 mi NNE 5.8 mph 17.3 mph N/A   Clear
4:36 AM 37.4 °F 30.3 °F 19.4 °F 48% 30.07 in 10.0 mi NNE 10.4 mph 16.1 mph N/A   Clear
4:56 AM 37.4 °F 30.3 °F 19.4 °F 48% 30.07 in 10.0 mi NNE 10.4 mph 19.6 mph N/A   Clear
5:16 AM 37.4 °F 30.8 °F 19.4 °F 48% 30.07 in 10.0 mi NNE 9.2 mph 18.4 mph N/A   Clear
5:36 AM 37.4 °F 30.3 °F 19.4 °F 48% 30.07 in 10.0 mi NNE 10.4 mph 17.3 mph N/A   Clear
6:16 AM 37.4 °F 30.3 °F 19.4 °F 48% 30.06 in 10.0 mi NNE 10.4 mph 17.3 mph N/A   Clear
6:36 AM 37.4 °F 30.3 °F 19.4 °F 48% 30.06 in 10.0 mi NE 10.4 mph 17.3 mph N/A   Clear
6:56 AM 37.4 °F 31.4 °F 19.4 °F 48% 30.06 in 10.0 mi NE 8.1 mph - N/A   Clear
7:16 AM 35.6 °F 27.5 °F 19.4 °F 52% 30.07 in 10.0 mi NE 11.5 mph 18.4 mph N/A   Clear
7:36 AM 35.6 °F 29.2 °F 19.4 °F 52% 30.06 in 10.0 mi NNE 8.1 mph - N/A   Clear
7:56 AM 35.6 °F 28.6 °F 19.4 °F 52% 30.06 in 10.0 mi NE 9.2 mph 19.6 mph N/A   Clear
8:16 AM 37.4 °F 29.8 °F 19.4 °F 48% 30.06 in 10.0 mi NNE 11.5 mph 18.4 mph N/A   Clear
8:36 AM 37.4 °F 30.3 °F 19.4 °F 48% 30.06 in 10.0 mi NE 10.4 mph 17.3 mph N/A   Clear
8:56 AM 37.4 °F 31.4 °F 19.4 °F 48% 30.06 in 10.0 mi NE 8.1 mph 16.1 mph N/A   Clear
9:16 AM 37.4 °F 32.1 °F 19.4 °F 48% 30.06 in 10.0 mi NNE 6.9 mph 16.1 mph N/A   Clear
9:36 AM 39.2 °F 33.6 °F 19.4 °F 45% 30.06 in 10.0 mi NNE 8.1 mph - N/A   Clear
9:56 AM 39.2 °F 35.0 °F 19.4 °F 45% 30.06 in 10.0 mi NNE 5.8 mph 16.1 mph N/A   Clear
10:16 AM 39.2 °F 33.6 °F 19.4 °F 45% 30.06 in 10.0 mi North 8.1 mph - N/A   Clear
10:36 AM 39.2 °F 32.5 °F 19.4 °F 45% 30.06 in 10.0 mi North 10.4 mph 17.3 mph N/A   Clear
10:56 AM 39.2 °F 32.5 °F 19.4 °F 45% 30.06 in 10.0 mi NE 10.4 mph 16.1 mph N/A   Clear
11:16 AM 41.0 °F 33.9 °F 19.4 °F 42% 30.06 in 10.0 mi North 12.7 mph 19.6 mph N/A   Clear
11:36 AM 41.0 °F 35.2 °F 17.6 °F 39% 30.06 in 10.0 mi NE 9.2 mph 17.3 mph N/A   Clear
11:56 AM 42.8 °F 37.0 °F 17.6 °F 36% 30.06 in 10.0 mi North 10.4 mph - N/A   Clear
12:16 PM 42.8 °F 37.5 °F 17.6 °F 36% 30.06 in 10.0 mi North 9.2 mph 16.1 mph N/A   Clear
12:36 PM 42.8 °F 39.3 °F 17.6 °F 36% 30.05 in 10.0 mi NNW 5.8 mph - N/A   Clear
12:56 PM 42.8 °F 38.6 °F 17.6 °F 36% 30.04 in 10.0 mi NNE 6.9 mph - N/A   Clear
1:16 PM 42.8 °F 37.5 °F 17.6 °F 36% 30.04 in 10.0 mi NE 9.2 mph 16.1 mph N/A   Clear
1:36 PM 42.8 °F 41.1 °F 15.8 °F 34% 30.04 in 10.0 mi NE 3.5 mph - N/A   Clear
1:56 PM 42.8 °F 36.6 °F 17.6 °F 36% 30.04 in 10.0 mi ENE 11.5 mph - N/A   Clear
2:16 PM 42.8 °F 38.0 °F 17.6 °F 36% 30.03 in 10.0 mi NNE 8.1 mph - N/A   Clear
2:36 PM 42.8 °F 38.6 °F 17.6 °F 36% 30.03 in 10.0 mi North 6.9 mph - N/A   Clear
2:56 PM 42.8 °F 41.1 °F 17.6 °F 36% 30.03 in 10.0 mi North 3.5 mph - N/A   Clear
3:16 PM 42.8 °F 38.0 °F 17.6 °F 36% 30.02 in 10.0 mi NE 8.1 mph 16.1 mph N/A   Clear
3:36 PM 42.8 °F 38.6 °F 17.6 °F 36% 30.02 in 10.0 mi North 6.9 mph 17.3 mph N/A   Clear
3:56 PM 42.8 °F 37.5 °F 17.6 °F 36% 30.01 in 10.0 mi North 9.2 mph - N/A   Clear
4:16 PM 42.8 °F 38.0 °F 17.6 °F 36% 30.01 in 10.0 mi North 8.1 mph - N/A   Clear
4:36 PM 41.0 °F 35.2 °F 17.6 °F 39% 30.01 in 10.0 mi NNE 9.2 mph - N/A   Clear
4:56 PM 41.0 °F 38.0 °F 17.6 °F 39% 30.01 in 10.0 mi North 4.6 mph - N/A   Clear
5:16 PM 39.2 °F 37.0 °F 17.6 °F 42% 30.00 in 10.0 mi NNE 3.5 mph - N/A   Clear
5:36 PM 39.2 °F - 17.6 °F 42% 30.00 in 10.0 mi Calm Calm - N/A   Clear
5:56 PM 35.6 °F 29.9 °F 19.4 °F 52% 30.00 in 10.0 mi NE 6.9 mph - N/A   Clear
6:16 PM 37.4 °F 32.8 °F 19.4 °F 48% 30.00 in 10.0 mi NNE 5.8 mph - N/A   Clear
6:36 PM 37.4 °F 32.1 °F 19.4 °F 48% 30.00 in 10.0 mi NE 6.9 mph - N/A   Clear
6:56 PM 35.6 °F 30.7 °F 19.4 °F 52% 30.00 in 10.0 mi NNE 5.8 mph - N/A   Clear
7:16 PM 35.6 °F 30.7 °F 19.4 °F 52% 30.00 in 10.0 mi NE 5.8 mph - N/A   Clear
7:36 PM 35.6 °F 31.7 °F 17.6 °F 48% 30.00 in 10.0 mi NNE 4.6 mph - N/A   Clear
7:56 PM 35.6 °F 31.7 °F 19.4 °F 52% 30.00 in 10.0 mi NE 4.6 mph - N/A   Clear
8:16 PM 30.2 °F 24.3 °F 17.6 °F 60% 30.00 in 10.0 mi NE 5.8 mph - N/A   Clear
8:36 PM 33.8 °F 27.7 °F 19.4 °F 56% 30.00 in 10.0 mi NNE 6.9 mph - N/A   Clear
8:56 PM 35.6 °F 30.7 °F 19.4 °F 52% 30.00 in 10.0 mi NNE 5.8 mph - N/A   Clear
9:16 PM 33.8 °F 28.6 °F 19.4 °F 56% 30.00 in 10.0 mi NE 5.8 mph - N/A   Clear
9:36 PM 30.2 °F 25.4 °F 19.4 °F 64% 30.00 in 10.0 mi NE 4.6 mph - N/A   Clear
9:56 PM 33.8 °F 28.6 °F 21.2 °F 60% 29.99 in 10.0 mi NNE 5.8 mph - N/A   Clear
10:16 PM 33.8 °F 27.7 °F 21.2 °F 60% 29.99 in 10.0 mi NE 6.9 mph - N/A   Clear
10:36 PM 35.6 °F 30.7 °F 21.2 °F 56% 29.99 in 10.0 mi NE 5.8 mph - N/A   Clear
10:56 PM 35.6 °F 30.7 °F 21.2 °F 56% 29.99 in 10.0 mi NE 5.8 mph - N/A   Clear
11:16 PM 35.6 °F 29.9 °F 21.2 °F 56% 29.99 in 10.0 mi NE 6.9 mph - N/A   Clear
11:36 PM 35.6 °F 29.9 °F 21.2 °F 56% 29.99 in 10.0 mi ENE 6.9 mph - N/A   Clear
11:56 PM 35.6 °F 30.7 °F 21.2 °F 56% 30.00 in 10.0 mi NE 5.8 mph - N/A   Clear